QFA763 YPPH-YMML

Flight info

Callsign QFA763
Flight time N/A
Altitude 41000
Route PH H18 BURGU Y53 ALAXO V279 ML
Aircraft A332/H-SDE3GHIJ2J3J5M1RVWXY/LB2D1

Departure

Time 2026-04-30 04:03
Airport Perth International Airport (YPPH)

Arrival

Time N/A
Airport Melbourne Airport (YMML)
Time Latitude Longitude Altitude Speed Heading
2026-04-30 03:39 -31.93384 115.96194 72 ft 0 kts 290°
2026-04-30 03:51 -31.93384 115.96195 72 ft 1 kts 290°
2026-04-30 03:51 -31.93392 115.96221 63 ft 4 kts 290°
2026-04-30 03:51 -31.93402 115.96251 61 ft 4 kts 300°
2026-04-30 03:52 -31.93418 115.96275 61 ft 4 kts 327°
2026-04-30 03:52 -31.93438 115.96281 61 ft 2 kts 23°
2026-04-30 03:52 -31.93459 115.96270 66 ft 4 kts 23°
2026-04-30 03:52 -31.93467 115.96266 61 ft 0 kts 23°
2026-04-30 03:56 -31.93461 115.96269 64 ft 2 kts 23°
2026-04-30 03:57 -31.93439 115.96280 64 ft 5 kts 22°
2026-04-30 03:57 -31.93411 115.96293 62 ft 7 kts 24°
2026-04-30 03:57 -31.93351 115.96314 67 ft 11 kts 13°
2026-04-30 03:57 -31.93277 115.96329 61 ft 10 kts
2026-04-30 03:58 -31.93195 115.96337 67 ft 13 kts
2026-04-30 03:58 -31.93109 115.96384 63 ft 13 kts 41°
2026-04-30 03:58 -31.93046 115.96468 61 ft 14 kts 46°
2026-04-30 03:58 -31.92992 115.96537 61 ft 8 kts 49°
2026-04-30 03:59 -31.92951 115.96577 61 ft 6 kts 16°
2026-04-30 03:59 -31.92911 115.96589 65 ft 4 kts 17°
2026-04-30 03:59 -31.92879 115.96606 67 ft 6 kts 24°
2026-04-30 03:59 -31.92856 115.96631 63 ft 0 kts 49°
2026-04-30 04:00 -31.92856 115.96632 72 ft 0 kts 50°
2026-04-30 04:00 -31.92854 115.96635 72 ft 1 kts 52°
2026-04-30 04:00 -31.92849 115.96649 62 ft 2 kts 71°
2026-04-30 04:00 -31.92847 115.96675 63 ft 4 kts 88°
2026-04-30 04:01 -31.92855 115.96710 64 ft 5 kts 109°
2026-04-30 04:01 -31.92866 115.96753 62 ft 6 kts 104°
2026-04-30 04:01 -31.92878 115.96805 64 ft 6 kts 114°
2026-04-30 04:01 -31.92918 115.96824 63 ft 7 kts 176°
2026-04-30 04:02 -31.92936 115.96822 66 ft 0 kts 189°
2026-04-30 04:02 -31.92962 115.96815 66 ft 16 kts 192°
2026-04-30 04:02 -31.93329 115.96708 65 ft 95 kts 194°
2026-04-30 04:03 -31.94218 115.96451 151 ft 159 kts 195°
2026-04-30 04:03 -31.95313 115.96136 1011 ft 169 kts 195°
2026-04-30 04:03 -31.96534 115.95806 1874 ft 191 kts 194°
2026-04-30 04:03 -31.97825 115.95456 2709 ft 188 kts 195°
2026-04-30 04:04 -31.99055 115.95087 3626 ft 177 kts 195°
2026-04-30 04:04 -32.00265 115.94951 4411 ft 177 kts 179°
2026-04-30 04:04 -32.01475 115.95389 5023 ft 191 kts 152°
2026-04-30 04:04 -32.02474 115.96499 5597 ft 206 kts 133°
2026-04-30 04:05 -32.03272 115.97975 6168 ft 222 kts 121°
2026-04-30 04:05 -32.03944 115.99681 6751 ft 237 kts 116°
2026-04-30 04:05 -32.04588 116.01537 7327 ft 252 kts 116°
2026-04-30 04:05 -32.05277 116.03482 7917 ft 269 kts 117°
2026-04-30 04:06 -32.06049 116.05570 8501 ft 286 kts 118°
2026-04-30 04:06 -32.06882 116.07751 9088 ft 296 kts 118°
2026-04-30 04:06 -32.07747 116.09975 9697 ft 301 kts 119°
2026-04-30 04:06 -32.08631 116.12232 10269 ft 305 kts 119°
2026-04-30 04:07 -32.09526 116.14516 10811 ft 309 kts 119°
2026-04-30 04:07 -32.10430 116.16825 11372 ft 312 kts 119°
2026-04-30 04:07 -32.11341 116.19162 11931 ft 316 kts 118°
2026-04-30 04:08 -32.13257 116.24064 13138 ft 341 kts 118°
2026-04-30 04:08 -32.14267 116.26645 13750 ft 352 kts 118°
2026-04-30 04:08 -32.15308 116.29311 14301 ft 362 kts 118°
2026-04-30 04:08 -32.16373 116.32044 14849 ft 372 kts 118°
2026-04-30 04:09 -32.17465 116.34849 15410 ft 379 kts 118°
2026-04-30 04:09 -32.18571 116.37702 15981 ft 384 kts 118°
2026-04-30 04:09 -32.19683 116.40578 16545 ft 387 kts 118°
2026-04-30 04:09 -32.20811 116.43485 17131 ft 391 kts 119°
2026-04-30 04:10 -32.22106 116.46314 17749 ft 394 kts 123°
2026-04-30 04:10 -32.23502 116.49122 18347 ft 398 kts 125°
2026-04-30 04:10 -32.24951 116.51921 18876 ft 402 kts 126°
2026-04-30 04:10 -32.26441 116.54738 19428 ft 406 kts 126°
2026-04-30 04:11 -32.27930 116.57530 19952 ft 409 kts 126°
2026-04-30 04:11 -32.29454 116.60386 20536 ft 412 kts 126°
2026-04-30 04:11 -32.30981 116.63258 21102 ft 414 kts 126°
2026-04-30 04:11 -32.32514 116.66152 21683 ft 416 kts 126°
2026-04-30 04:12 -32.34048 116.69059 22286 ft 418 kts 126°
2026-04-30 04:12 -32.35585 116.71978 22877 ft 419 kts 126°
2026-04-30 04:12 -32.37124 116.74908 23481 ft 419 kts 126°
2026-04-30 04:12 -32.38660 116.77838 24036 ft 419 kts 126°
2026-04-30 04:13 -32.40200 116.80776 24565 ft 419 kts 126°
2026-04-30 04:13 -32.41734 116.83706 25100 ft 419 kts 126°
2026-04-30 04:13 -32.43265 116.86632 25666 ft 418 kts 126°
2026-04-30 04:13 -32.44792 116.89552 26206 ft 416 kts 126°
2026-04-30 04:14 -32.46312 116.92464 26810 ft 415 kts 126°
2026-04-30 04:14 -32.47826 116.95365 27387 ft 413 kts 126°
2026-04-30 04:14 -32.49327 116.98247 27981 ft 410 kts 126°
2026-04-30 04:14 -32.50817 117.01109 28585 ft 407 kts 126°
2026-04-30 04:15 -32.52296 117.03953 29209 ft 403 kts 126°
2026-04-30 04:15 -32.53649 117.06850 29838 ft 401 kts 117°
2026-04-30 04:15 -32.54669 117.09904 30442 ft 397 kts 111°
2026-04-30 04:15 -32.55564 117.12976 30974 ft 392 kts 110°
2026-04-30 04:16 -32.56408 117.16027 31528 ft 386 kts 109°
2026-04-30 04:16 -32.57224 117.19030 32071 ft 379 kts 109°
2026-04-30 04:16 -32.58022 117.21975 32630 ft 371 kts 109°
2026-04-30 04:16 -32.58804 117.24844 33213 ft 361 kts 109°
2026-04-30 04:17 -32.59568 117.27628 33774 ft 351 kts 109°
2026-04-30 04:17 -32.61136 117.33296 33288 ft 381 kts 109°
2026-04-30 04:18 -32.62748 117.39366 33382 ft 392 kts 108°